Sacramento / Mc Clellan, CA

9:49 PM PDT on October 20, 2017 (GMT -0700)
McClellan

Weather History for KMCC - December, 2012

Change the Weather History Date:

Saturday, December 1, 2012

  Actual Average (KMHR) Record (KMHR)
Temperature  
Mean Temperature 58 °F -  
Max Temperature 62 °F 53 °F 68 °F (2014)
Min Temperature 55 °F 38 °F 28 °F (2010)
Degree Days  
Heating Degree Days 6    
Growing Degree Days 8 (Base 50)    
Moisture  
Dew Point 56 °F    
Average Humidity 92    
Maximum Humidity 100    
Minimum Humidity 82    
Precipitation  
Precipitation 0.00 in - - ()
Sea Level Pressure  
Sea Level Pressure 29.99 in    
Wind  
Wind Speed 15 mph ()    
Max Wind Speed 25 mph    
Max Gust Speed 34 mph    
Visibility 6.2 miles    
Events Rain    
Averages and records for this station are not official NWS values.
T = Trace of Precipitation, MM = Missing Value Source: Averaged Metar Reports

Daily Weather History Graph

Daily Weather History Graph

Search for Another Location

Airport or City:

Trip Planner

Search our weather history database for the weather conditions in past years. The results will help you decide how hot, cold, wet, or windy it might be!

Date:

Astronomy

Dec. 01, 2012 Rise Set
Actual Time 7:05 AM PST 4:44 PM PST
Civil Twilight 6:35 AM PST 5:13 PM PST
Nautical Twilight 6:02 AM PST 5:46 PM PST
Astronomical Twilight 5:30 AM PST 6:18 PM PST
Moon 7:38 PM PST (12/1) 9:21 AM PST (12/1)
Length of Visible Light 10h 38m
Length of Day
9h 39m
Waning Gibbous, 91% of the Moon is Illuminated
Dec 1
Waning Gibbous
Dec 6
Last Quarter
Dec 13
New
Dec 19
First Quarter
Dec 28
Full

Hourly Weather History & Observations

Time (PST) Temp. Dew Point Humidity Pressure Visibility Wind Dir Wind Speed Gust Speed Precip Events Conditions
12:10 AM 55.4 °F 53.6 °F 94% 30.03 in 10.0 mi SSE 13.8 mph 18.4 mph N/A   Partly Cloudy
12:30 AM 55.4 °F 53.6 °F 94% 30.04 in 10.0 mi SSE 11.5 mph - N/A   Scattered Clouds
12:50 AM 55.4 °F 53.6 °F 94% 30.03 in 10.0 mi SSE 12.7 mph - N/A   Scattered Clouds
1:10 AM 57.2 °F 53.6 °F 88% 30.03 in 10.0 mi SSE 11.5 mph 18.4 mph N/A   Scattered Clouds
1:30 AM 57.2 °F 53.6 °F 88% 30.03 in 10.0 mi SSE 12.7 mph - N/A   Scattered Clouds
1:50 AM 57.2 °F 53.6 °F 88% 30.02 in 10.0 mi SSE 15.0 mph 19.6 mph N/A   Mostly Cloudy
2:10 AM 57.2 °F 53.6 °F 88% 30.01 in 10.0 mi SSE 17.3 mph 23.0 mph N/A   Mostly Cloudy
2:30 AM 57.2 °F 53.6 °F 88% 30.00 in 10.0 mi SE 17.3 mph 25.3 mph N/A   Mostly Cloudy
2:50 AM 57.2 °F 53.6 °F 88% 29.99 in 10.0 mi SE 17.3 mph 26.5 mph N/A   Mostly Cloudy
3:10 AM 57.2 °F 53.6 °F 88% 30.00 in 10.0 mi SE 16.1 mph 24.2 mph N/A   Mostly Cloudy
3:30 AM 57.2 °F 53.6 °F 88% 30.00 in 10.0 mi SSE 17.3 mph - N/A   Mostly Cloudy
3:50 AM 57.2 °F 53.6 °F 88% 29.98 in 10.0 mi SE 18.4 mph - N/A   Mostly Cloudy
4:10 AM 57.2 °F 55.4 °F 94% 29.99 in 5.0 mi SSE 16.1 mph 24.2 mph N/A Rain Light Rain
4:30 AM 57.2 °F 55.4 °F 94% 30.00 in 3.0 mi SSE 20.7 mph 26.5 mph N/A Rain Light Rain
4:50 AM 57.2 °F 55.4 °F 94% 29.99 in 1.5 mi SSE 23.0 mph 32.2 mph N/A Rain Light Rain
5:10 AM 57.2 °F 55.4 °F 94% 29.99 in 1.8 mi SSE 21.9 mph 29.9 mph N/A Rain Light Rain
5:30 AM 57.2 °F 55.4 °F 94% 30.00 in 2.0 mi SE 20.7 mph 31.1 mph N/A Rain Light Rain
5:50 AM 57.2 °F 55.4 °F 94% 29.99 in 7.0 mi SE 25.3 mph 34.5 mph N/A   Overcast
6:10 AM 57.2 °F 53.6 °F 88% 30.00 in 9.0 mi SE 20.7 mph 33.4 mph N/A   Overcast
6:30 AM 57.2 °F 55.4 °F 94% 29.99 in 5.0 mi SSE 20.7 mph 26.5 mph N/A Rain Light Rain
6:50 AM 57.2 °F 55.4 °F 94% 30.00 in 2.5 mi SSE 20.7 mph 24.2 mph N/A Rain Light Rain
7:10 AM 59.0 °F 55.4 °F 88% 30.00 in 2.0 mi SSE 20.7 mph 29.9 mph N/A Rain Light Rain
7:30 AM 59.0 °F 55.4 °F 88% 30.01 in 1.2 mi SSE 16.1 mph 25.3 mph N/A Rain Light Rain
7:50 AM 59.0 °F 55.4 °F 88% 30.02 in 2.0 mi South 15.0 mph 23.0 mph N/A Rain Light Rain
8:10 AM 57.2 °F 55.4 °F 94% 30.02 in 1.2 mi South 13.8 mph 19.6 mph N/A Rain Light Rain
8:30 AM 57.2 °F 57.2 °F 100% 30.02 in 0.8 mi South 12.7 mph - N/A Rain Light Rain
8:50 AM 57.2 °F 57.2 °F 100% 30.03 in 1.2 mi South 9.2 mph - N/A Rain Light Rain
9:10 AM 57.2 °F 57.2 °F 100% 30.04 in 0.8 mi SSW 6.9 mph - N/A Rain Light Rain
9:30 AM 57.2 °F 57.2 °F 100% 30.04 in 0.8 mi SSW 10.4 mph - N/A Rain Light Rain
9:50 AM 59.0 °F 57.2 °F 94% 30.05 in 1.5 mi SW 6.9 mph - N/A Rain Light Rain
10:10 AM 59.0 °F 57.2 °F 94% 30.05 in 10.0 mi South 12.7 mph 18.4 mph N/A   Overcast
10:30 AM 59.0 °F 57.2 °F 94% 30.06 in 10.0 mi South 13.8 mph 19.6 mph N/A   Overcast
10:50 AM 60.8 °F 57.2 °F 88% 30.05 in 9.0 mi South 16.1 mph 27.6 mph N/A Rain Light Rain
11:10 AM 60.8 °F 57.2 °F 88% 30.03 in 10.0 mi SSE 18.4 mph 27.6 mph N/A Rain Light Rain
11:30 AM 60.8 °F 57.2 °F 88% 30.03 in 10.0 mi SSE 19.6 mph 27.6 mph N/A   Mostly Cloudy
11:50 AM 62.6 °F 57.2 °F 82% 30.02 in 10.0 mi SSE 20.7 mph 29.9 mph N/A   Mostly Cloudy
12:10 PM 60.8 °F 57.2 °F 88% 30.01 in 9.0 mi SSE 24.2 mph 32.2 mph N/A   Mostly Cloudy
12:30 PM 62.6 °F 57.2 °F 82% 30.01 in 9.0 mi SSE 23.0 mph 27.6 mph N/A   Overcast
12:50 PM 60.8 °F 57.2 °F 88% 30.01 in 5.0 mi SE 17.3 mph 23.0 mph N/A Rain Light Rain
1:10 PM 60.8 °F 59.0 °F 94% 30.00 in 10.0 mi SE 18.4 mph 24.2 mph N/A   Scattered Clouds
1:30 PM 62.6 °F 59.0 °F 88% 29.99 in 10.0 mi SE 19.6 mph 24.2 mph N/A   Clear
1:50 PM 62.6 °F 59.0 °F 88% 29.99 in 10.0 mi SSE 16.1 mph 23.0 mph N/A   Scattered Clouds
2:10 PM 62.6 °F 59.0 °F 88% 29.99 in 10.0 mi SSE 15.0 mph 21.9 mph N/A   Mostly Cloudy
2:30 PM 60.8 °F 57.2 °F 88% 30.00 in 1.5 mi SW 18.4 mph 23.0 mph N/A Rain Rain
2:50 PM 59.0 °F 57.2 °F 94% 30.00 in 0.8 mi South 12.7 mph - N/A Rain Heavy Rain
3:10 PM 59.0 °F 57.2 °F 94% 30.00 in 0.5 mi South 11.5 mph - N/A Rain Rain
3:30 PM 59.0 °F 57.2 °F 94% 29.99 in 9.0 mi SSE 8.1 mph - N/A   Overcast
3:50 PM 59.0 °F 57.2 °F 94% 29.98 in 9.0 mi South 10.4 mph - N/A   Mostly Cloudy
4:10 PM 59.0 °F 57.2 °F 94% 29.99 in 10.0 mi SSE 8.1 mph - N/A   Mostly Cloudy
4:30 PM 59.0 °F 57.2 °F 94% 29.99 in 10.0 mi South 12.7 mph - N/A   Overcast
4:50 PM 59.0 °F 57.2 °F 94% 29.98 in 10.0 mi SSE 11.5 mph - N/A   Overcast
5:10 PM 59.0 °F 57.2 °F 94% 29.98 in 10.0 mi SSE 13.8 mph - N/A   Mostly Cloudy
5:30 PM 59.0 °F 57.2 °F 94% 29.98 in 10.0 mi South 10.4 mph 18.4 mph N/A   Mostly Cloudy
5:50 PM 59.0 °F 57.2 °F 94% 29.98 in 4.0 mi SSE 12.7 mph - N/A Rain Light Rain
6:10 PM 59.0 °F 57.2 °F 94% 29.98 in 10.0 mi SSE 15.0 mph - N/A   Overcast
6:30 PM 59.0 °F 57.2 °F 94% 29.98 in 9.0 mi SSE 12.7 mph 20.7 mph N/A Rain Light Rain
6:50 PM 59.0 °F 57.2 °F 94% 29.97 in 3.0 mi SSE 16.1 mph - N/A Rain Light Rain
7:10 PM 59.0 °F 57.2 °F 94% 29.96 in 4.0 mi SSE 17.3 mph 20.7 mph N/A Rain Light Rain
7:30 PM 59.0 °F 57.2 °F 94% 29.95 in 8.0 mi SE 16.1 mph 21.9 mph N/A   Mostly Cloudy
7:50 PM 59.0 °F 57.2 °F 94% 29.95 in 2.5 mi SSE 19.6 mph 25.3 mph N/A Rain Light Rain
8:10 PM 59.0 °F 57.2 °F 94% 29.93 in 8.0 mi SSE 21.9 mph 26.5 mph N/A   Overcast
8:30 PM 59.0 °F 57.2 °F 94% 29.92 in 10.0 mi SE 17.3 mph - N/A   Mostly Cloudy
8:50 PM 59.0 °F 57.2 °F 94% 29.92 in 4.0 mi SSE 19.6 mph 29.9 mph N/A Rain Light Rain
9:10 PM 57.2 °F 55.4 °F 94% 29.92 in 3.0 mi SSE 19.6 mph 28.8 mph N/A Rain Light Rain
9:30 PM 57.2 °F 55.4 °F 94% 29.92 in 3.0 mi SSE 18.4 mph 23.0 mph N/A Rain Light Rain
9:50 PM 57.2 °F 55.4 °F 94% 29.91 in 1.8 mi SSE 17.3 mph - N/A Rain Light Rain
10:10 PM 59.0 °F 57.2 °F 94% 29.90 in 1.8 mi SSE 20.7 mph 29.9 mph N/A   Overcast
10:30 PM 59.0 °F 57.2 °F 94% 29.91 in 1.2 mi SSE 23.0 mph 32.2 mph N/A Rain Light Rain
10:50 PM 59.0 °F 57.2 °F 94% 29.90 in 1.5 mi SSE 24.2 mph 32.2 mph N/A Rain Light Rain
11:10 PM 59.0 °F 57.2 °F 94% 29.90 in 1.2 mi SSE 25.3 mph 32.2 mph N/A Rain Light Rain
11:30 PM 59.0 °F 57.2 °F 94% 29.89 in 2.5 mi SSE 24.2 mph 32.2 mph N/A Rain Light Rain
11:50 PM 59.0 °F 57.2 °F 94% 29.89 in 7.0 mi SSE 21.9 mph 32.2 mph N/A   Overcast